Location: Unspecified
(0.0000°N, 0.0000°E)
Time: 01:30:09
(UTC+00:00)

CZ-3B DEB - Pass Details

Date: 15 December 2025
Orbit: 439 x 40833 km, 23.6° (Epoch: 17 December)

Event Time Altitude Azimuth Distance (km) Brightness Sun altitude
Rises 15:46:58 0° 289° (WNW) 8,032 ? 29.2°
Reaches altitude 10° 15:50:43 10° 294° (WNW) 8,178 ? 28.4°
Maximum altitude 18:55:11 65° 338° (NNW) 34,716 ? -13.7°
Drops below altitude 10° 03:19:18 10° 150° (SSE) 3,689 ? -35.4°
Sets 03:21:26 0° 137° (SE) 3,999 ? -34.9°
